Weather History for KLWD - May, 2013

Change the Weather History Date:

Saturday, May 4, 2013

  Actual Average Record
Temperature  
Mean Temperature 44 °F 57 °F  
Max Temperature 54 °F 68 °F 86 °F (1949)
Min Temperature 34 °F 47 °F 34 °F (2011)
Degree Days  
Heating Degree Days 21 8  
Month to date heating degree days 91 34  
Since 1 July heating degree days 5971 5929  
Cooling Degree Days 0 0  
Month to date cooling degree days 0 0  
Year to date cooling degree days 12 7  
Moisture  
Dew Point 40 °F    
Average Humidity 89    
Maximum Humidity 100    
Minimum Humidity 77    
Precipitation  
Precipitation 0.03 in 0.17 in 1.25 in (1991)
Month to date precipitation 1.81 0.69  
Sea Level Pressure  
Sea Level Pressure 29.95 in    
Wind  
Wind Speed 12 mph (North)    
Max Wind Speed 23 mph    
Max Gust Speed 30 mph    
Visibility 6 miles    
Events Fog , Rain , Snow    
T = Trace of Precipitation, MM = Missing Value Source: NWS Daily Summary

Daily Weather History Graph

Daily Weather History Graph

Search for Another Location

Airport or City:

Trip Planner

Search our weather history database for the weather conditions in past years. The results will help you decide how hot, cold, wet, or windy it might be!

Date:

Astronomy

May. 04, 2013 Rise Set
Actual Time 6:10 AM CDT 8:15 PM CDT
Civil Twilight 5:40 AM CDT 8:45 PM CDT
Nautical Twilight 5:03 AM CDT 9:21 PM CDT
Astronomical Twilight 4:23 AM CDT 10:02 PM CDT
Moon 3:10 AM CDT (5/4) 3:12 PM CDT (5/4)
Length of Visible Light 15h 04m
Length of Day
14h 04m
Waning Crescent, 27% of the Moon is Illuminated
May 4
Waning Crescent
May 9
New
May 17
First Quarter
May 24
Full
May 31
Last Quarter

Hourly Weather History & Observations

Time (CDT) Temp. Windchill Dew Point Humidity Pressure Visibility Wind Dir Wind Speed Gust Speed Precip Events Conditions
12:53 AM 34.0 °F 21.5 °F 30.9 °F 89% 29.88 in 10.0 mi North 24.2 mph 28.8 mph N/A   Overcast
1:53 AM 34.0 °F 23.0 °F 32.0 °F 92% 29.88 in 10.0 mi North 18.4 mph 24.2 mph 0.00 in   Overcast
2:53 AM 35.1 °F 25.5 °F 32.0 °F 89% 29.87 in 10.0 mi North 15.0 mph 24.2 mph N/A   Overcast
3:53 AM 35.1 °F 25.9 °F 33.1 °F 92% 29.86 in 7.0 mi North 13.8 mph 23.0 mph 0.00 in Snow Light Snow
4:53 AM 35.1 °F 26.4 °F 34.0 °F 96% 29.86 in 2.5 mi North 12.7 mph - 0.00 in   Overcast
5:23 AM 35.6 °F 27.1 °F 33.8 °F 93% 29.83 in 1.5 mi North 12.7 mph - 0.01 in   Overcast
5:40 AM 35.6 °F 25.5 °F 33.8 °F 93% 29.82 in 1.8 mi North 17.3 mph - 0.01 in Rain Light Freezing Rain
5:51 AM 35.6 °F 25.5 °F 33.8 °F 93% 29.83 in 2.0 mi North 17.3 mph - 0.01 in Rain Light Freezing Rain
5:53 AM 36.0 °F 26.0 °F 34.0 °F 93% 29.86 in 2.0 mi North 17.3 mph - 0.01 in Rain Light Freezing Rain
6:25 AM 35.6 °F 26.2 °F 33.8 °F 93% 29.84 in 2.5 mi North 15.0 mph 23.0 mph 0.00 in   Overcast
6:40 AM 35.6 °F 26.2 °F 33.8 °F 93% 29.85 in 1.5 mi North 15.0 mph 23.0 mph 0.00 in   Overcast
6:53 AM 36.0 °F 27.1 °F 34.0 °F 93% 29.88 in 1.5 mi North 13.8 mph - 0.00 in   Overcast
7:35 AM 35.6 °F 26.6 °F 35.6 °F 100% 29.86 in 1.0 mi North 13.8 mph - 0.00 in Rain Light Freezing Rain
7:51 AM 37.4 °F 28.9 °F 35.6 °F 93% 29.87 in 1.0 mi North 13.8 mph - 0.00 in   Overcast
7:53 AM 37.0 °F 28.9 °F 35.1 °F 93% 29.90 in 1.0 mi North 12.7 mph - 0.00 in   Overcast
8:53 AM 37.9 °F 30.5 °F 37.0 °F 97% 29.92 in 1.0 mi North 11.5 mph - 0.00 in   Mist
9:13 AM 39.2 °F 33.0 °F 37.4 °F 93% 29.90 in 0.8 mi NNE 9.2 mph - N/A   Mist
9:53 AM 39.9 °F 33.4 °F 39.0 °F 97% 29.95 in 0.2 mi NNE 10.4 mph - N/A Fog Fog
10:53 AM 42.1 °F 37.1 °F 41.0 °F 96% 29.97 in 0.2 mi NNE 8.1 mph - N/A Fog Fog
11:53 AM 45.0 °F 40.1 °F 43.0 °F 93% 29.97 in 2.0 mi NNE 9.2 mph - N/A   Overcast
12:05 PM 44.6 °F 38.4 °F 42.8 °F 93% 29.95 in 4.0 mi NNE 12.7 mph - N/A   Overcast
12:53 PM 46.0 °F 41.0 °F 44.1 °F 93% 29.98 in 10.0 mi NE 10.4 mph - N/A   Overcast
1:03 PM 46.4 °F 41.5 °F 44.6 °F 93% 29.96 in 10.0 mi NE 10.4 mph - N/A   Overcast
1:38 PM 51.8 °F - 44.6 °F 76% 29.96 in 10.0 mi NNE 9.2 mph - N/A   Overcast
1:53 PM 52.0 °F - 46.0 °F 80% 29.97 in 10.0 mi NE 11.5 mph - N/A   Mostly Cloudy
2:53 PM 53.1 °F - 46.0 °F 77% 29.98 in 10.0 mi NNE 9.2 mph - N/A   Overcast
3:53 PM 53.1 °F - 46.9 °F 80% 29.99 in 10.0 mi NNE 11.5 mph - N/A   Overcast
4:53 PM 52.0 °F - 48.0 °F 86% 29.99 in 9.0 mi North 10.4 mph - N/A   Overcast
5:11 PM 53.6 °F - 48.2 °F 82% 29.97 in 9.0 mi North 9.2 mph - N/A   Overcast
5:33 PM 53.6 °F - 48.2 °F 82% 29.97 in 8.0 mi NNW 9.2 mph - N/A   Overcast
5:53 PM 52.0 °F - 48.0 °F 86% 30.00 in 7.0 mi North 9.2 mph - N/A   Overcast
6:20 PM 51.8 °F - 48.2 °F 88% 29.99 in 5.0 mi North 9.2 mph - 0.00 in   Overcast
6:53 PM 50.0 °F - 48.0 °F 93% 30.01 in 5.0 mi North 9.2 mph - 0.00 in Rain Light Rain
7:53 PM 48.9 °F - 46.0 °F 90% 30.03 in 7.0 mi North 12.7 mph - 0.00 in   Overcast
8:53 PM 46.9 °F - 45.0 °F 93% 30.05 in 6.0 mi North 9.2 mph - 0.01 in   Overcast
9:26 PM 46.4 °F 41.9 °F 44.6 °F 93% 30.04 in 5.0 mi North 9.2 mph - N/A   Overcast
9:53 PM 45.0 °F 39.7 °F 43.0 °F 93% 30.06 in 9.0 mi North 10.4 mph - N/A   Overcast
10:46 PM 44.6 °F 38.4 °F 42.8 °F 93% 30.05 in 10.0 mi North 12.7 mph - N/A   Overcast
10:53 PM 44.1 °F 37.4 °F 42.1 °F 93% 30.07 in 10.0 mi North 13.8 mph - N/A   Overcast
11:08 PM 44.6 °F 38.8 °F 42.8 °F 93% 30.06 in 9.0 mi North 11.5 mph - N/A   Overcast
11:18 PM 44.6 °F 39.7 °F 42.8 °F 93% 30.06 in 6.0 mi North 9.2 mph - N/A   Overcast
11:44 PM 44.6 °F 40.7 °F 42.8 °F 93% 30.06 in 5.0 mi North 6.9 mph - N/A   Overcast
11:53 PM 44.1 °F 39.5 °F 42.1 °F 93% 30.08 in 5.0 mi North 8.1 mph - N/A   Overcast